Air Resources Laboratory banner image
Air Resources Laboratory web site National Oceanic and Atmospheric Administration (NOAA)

vt roundup


Office: BTV

ASUS41 KBTV 261511
RWRBTV
VERMONT REGIONAL WEATHER ROUNDUP
NATIONAL WEATHER SERVICE BURLINGTON VT
1100 AM EDT SAT MAY 26 2018

NOTE: "FAIR" INDICATES FEW OR NO CLOUDS BELOW 12,000 FEET WITH NO
SIGNIFICANT WEATHER AND/OR OBSTRUCTIONS TO VISIBILITY.

* THESE REPORTS ARE NOT UNDER NWS QUALITY CONTROL AND/OR DO NOT
  REPORT WEATHER SUCH AS PRECIPITATION AND FOG.

VTZ001>019-261600-
_____VERMONT_____


CITY           SKY/WX    TMP DP  RH WIND       PRES   REMARKS
BURLINGTON     PTSUNNY   71  59  65 CALM      29.77S
MONTPELIER     LGT RAIN  66  65  96 CALM      29.84R
MORRISVILLE    LGT RAIN  64  62  93 CALM      29.81R
ST. JOHNSBURY*   N/A     65  64  97 MISG      29.77R
LYNDONVILLE*   RAIN      64  60  88 CALM      29.82R
MIDDLEBURY*    FAIR      71  58  63 S5        29.78S
RUTLAND*       FAIR      78  53  41 W10       29.79S
SPRINGFIELD    FAIR      78  56  46 NE3       29.76S
HIGHGATE*      RAIN      63  62  97 CALM      29.78R
NEWPORT*       RAIN      63  61  95 CALM      29.79F
BENNINGTON     FAIR      79  55  43 SW8       29.81S

_____LAKE CHAMPLAIN_____


CITY           SKY/WX    TMP DP  RH WIND       PRES   REMARKS
COLCHESTER RF*   N/A     64  61  88 E5          N/A

$$

NYZ007-026>031-035-052-083-087-261600-
_____NORTHERN NEW YORK_____


CITY           SKY/WX    TMP DP  RH WIND       PRES   REMARKS
PLATTSBURGH    CLOUDY    67  60  78 CALM      29.76F
SARANAC LAKE   FAIR      67  59  75 W7        29.79F
MASSENA        PTSUNNY   71  61  70 NW7       29.79R
OGDENSBURG*    PTSUNNY   72  58  63 CALM      29.78R
POTSDAM*       PTSUNNY   72  59  64 W8        29.78R
WATERTOWN      FAIR      71  56  58 W13       29.79R
FT DRUM        FAIR      76  56  50 W6        29.79R
ALBANY         PTSUNNY   81  55  40 W6        29.80R
GLENS FALLS    FAIR      72  58  61 S7        29.78S

$$
NHZ002-005-011-261600-
_____NEW HAMPSHIRE_____


CITY           SKY/WX    TMP DP  RH WIND       PRES   REMARKS
LEBANON        FAIR      80  56  43 N5        29.76R
KEENE          FAIR      82  56  40 S8        29.78S
MT WASHINGTON  LGT RAIN  48  48 100 NW48G56     N/A  VSB 0
PLYMOUTH       FAIR      74  54  48 W5        29.76R
WHITEFIELD     LGT RAIN  67  63  87 W5        29.80R

$$

_____REGIONAL QUEBEC LOCATIONS_____


CITY           SKY/WX    TMP DP  RH WIND       PRES   REMARKS
MONTREAL       LGT RAIN  63  61  94 SW3       29.79R FOG
QUEBEC CITY    MOSUNNY   54  46  76 E7        29.82R
SHERBROOKE     PTSUNNY   66  61  82 NW5       29.76F

_____REGIONAL ONTARIO LOCATIONS_____


CITY           SKY/WX    TMP DP  RH WIND       PRES   REMARKS
OTTAWA         CLOUDY    66  64  94 NW6       29.80R

______KEY______
VSB  - VISIBILITY IN MILES
WCI  - WIND CHILL INDEX
HX   - HEAT INDEX
$$
NNNN


ASUS41 KBTV 261511
RWRBTV
VERMONT REGIONAL WEATHER ROUNDUP
NATIONAL WEATHER SERVICE BURLINGTON VT
1100 AM EDT SAT MAY 26 2018

NOTE: "FAIR" INDICATES FEW OR NO CLOUDS BELOW 12,000 FEET WITH NO
SIGNIFICANT WEATHER AND/OR OBSTRUCTIONS TO VISIBILITY.

* THESE REPORTS ARE NOT UNDER NWS QUALITY CONTROL AND/OR DO NOT
  REPORT WEATHER SUCH AS PRECIPITATION AND FOG.

VTZ001>019-261600-
_____VERMONT_____


CITY           SKY/WX    TMP DP  RH WIND       PRES   REMARKS
BURLINGTON     PTSUNNY   71  59  65 CALM      29.77S
MONTPELIER     LGT RAIN  66  65  96 CALM      29.84R
MORRISVILLE    LGT RAIN  64  62  93 CALM      29.81R
ST. JOHNSBURY*   N/A     65  64  97 MISG      29.77R
LYNDONVILLE*   RAIN      64  60  88 CALM      29.82R
MIDDLEBURY*    FAIR      71  58  63 S5        29.78S
RUTLAND*       FAIR      78  53  41 W10       29.79S
SPRINGFIELD    FAIR      78  56  46 NE3       29.76S
HIGHGATE*      RAIN      63  62  97 CALM      29.78R
NEWPORT*       RAIN      63  61  95 CALM      29.79F
BENNINGTON     FAIR      79  55  43 SW8       29.81S

_____LAKE CHAMPLAIN_____


CITY           SKY/WX    TMP DP  RH WIND       PRES   REMARKS
COLCHESTER RF*   N/A     64  61  88 E5          N/A

$$

NYZ007-026>031-035-052-083-087-261600-
_____NORTHERN NEW YORK_____


CITY           SKY/WX    TMP DP  RH WIND       PRES   REMARKS
PLATTSBURGH    CLOUDY    67  60  78 CALM      29.76F
SARANAC LAKE   FAIR      67  59  75 W7        29.79F
MASSENA        PTSUNNY   71  61  70 NW7       29.79R
OGDENSBURG*    PTSUNNY   72  58  63 CALM      29.78R
POTSDAM*       PTSUNNY   72  59  64 W8        29.78R
WATERTOWN      FAIR      71  56  58 W13       29.79R
FT DRUM        FAIR      76  56  50 W6        29.79R
ALBANY         PTSUNNY   81  55  40 W6        29.80R
GLENS FALLS    FAIR      72  58  61 S7        29.78S

$$
NHZ002-005-011-261600-
_____NEW HAMPSHIRE_____


CITY           SKY/WX    TMP DP  RH WIND       PRES   REMARKS
LEBANON        FAIR      80  56  43 N5        29.76R
KEENE          FAIR      82  56  40 S8        29.78S
MT WASHINGTON  LGT RAIN  48  48 100 NW48G56     N/A  VSB 0
PLYMOUTH       FAIR      74  54  48 W5        29.76R
WHITEFIELD     LGT RAIN  67  63  87 W5        29.80R

$$

_____REGIONAL QUEBEC LOCATIONS_____


CITY           SKY/WX    TMP DP  RH WIND       PRES   REMARKS
MONTREAL       LGT RAIN  63  61  94 SW3       29.79R FOG
QUEBEC CITY    MOSUNNY   54  46  76 E7        29.82R
SHERBROOKE     PTSUNNY   66  61  82 NW5       29.76F

_____REGIONAL ONTARIO LOCATIONS_____


CITY           SKY/WX    TMP DP  RH WIND       PRES   REMARKS
OTTAWA         CLOUDY    66  64  94 NW6       29.80R

______KEY______
VSB  - VISIBILITY IN MILES
WCI  - WIND CHILL INDEX
HX   - HEAT INDEX
$$
NNNN


ASUS41 KBTV 261530
RWRBTV
VERMONT REGIONAL WEATHER ROUNDUP
NATIONAL WEATHER SERVICE BURLINGTON VT
1100 AM EDT SAT MAY 26 2018

NOTE: "FAIR" INDICATES FEW OR NO CLOUDS BELOW 12,000 FEET WITH NO
SIGNIFICANT WEATHER AND/OR OBSTRUCTIONS TO VISIBILITY.

* THESE REPORTS ARE NOT UNDER NWS QUALITY CONTROL AND/OR DO NOT
  REPORT WEATHER SUCH AS PRECIPITATION AND FOG.

VTZ001>019-261600-
_____VERMONT_____


CITY           SKY/WX    TMP DP  RH WIND       PRES   REMARKS
BURLINGTON     PTSUNNY   71  59  65 CALM      29.77S
MONTPELIER     LGT RAIN  66  65  96 CALM      29.84R
MORRISVILLE    PTSUNNY   65  61  87 N3        29.79F
ST. JOHNSBURY*   N/A     65  64  97 MISG      29.77R
LYNDONVILLE*   LGT RAIN  64  60  87 CALM      29.81S
MIDDLEBURY*    FAIR      72  58  60 S5        29.77F
RUTLAND*       FAIR      78  53  41 W10       29.79S
SPRINGFIELD    FAIR      78  56  46 NE3       29.76S
HIGHGATE*      DRIZZLE   63  62  97 CALM      29.79R
NEWPORT*       RAIN      63  62  97 CALM      29.80S
BENNINGTON     FAIR      79  55  43 SW8       29.81S
ISLAND POND*     N/A     64 N/A N/A NW5         N/A
GALLUP MILLS*    N/A     63 N/A N/A MISG        N/A
UNION VILLAGE*   N/A     72 N/A N/A MISG        N/A
MT. MANSFIELD*   N/A     57 N/A N/A W14         N/A

_____LAKE CHAMPLAIN_____


CITY           SKY/WX    TMP DP  RH WIND       PRES   REMARKS
BURTON ISLAND*   N/A     61  61 100 NE1         N/A
COLCHESTER RF*   N/A     64  61  88 E5          N/A
DIAMOND ISL*     N/A     66  57  72 N3          N/A

$$

NYZ007-026>031-035-052-083-087-261600-
_____NORTHERN NEW YORK_____


CITY           SKY/WX    TMP DP  RH WIND       PRES   REMARKS
PLATTSBURGH    CLOUDY    67  60  78 CALM      29.76F
SARANAC LAKE   FAIR      67  59  75 W7        29.79F
MASSENA        PTSUNNY   71  61  70 NW7       29.79R
OGDENSBURG*    FAIR      73  60  63 W3        29.79R
POTSDAM*       CLOUDY    72  59  64 W9        29.78R
STARK FALLS*     N/A     72 N/A N/A W9          N/A
WATERTOWN      FAIR      71  56  58 W13       29.79R
FT DRUM        FAIR      76  56  50 W6        29.79R
ALBANY         PTSUNNY   81  55  40 W6        29.80R
GLENS FALLS    FAIR      72  58  61 S7        29.78S

$$
NHZ002-005-011-261600-
_____NEW HAMPSHIRE_____


CITY           SKY/WX    TMP DP  RH WIND       PRES   REMARKS
LEBANON        FAIR      80  56  43 N5        29.76R
KEENE          FAIR      82  56  40 S8        29.78S
MT WASHINGTON  LGT RAIN  48  48 100 NW48G56     N/A  VSB 0
PLYMOUTH       FAIR      74  54  48 W3        29.76R
WHITEFIELD     RAIN      67  63  87 S5        29.80R FOG

$$

_____REGIONAL QUEBEC LOCATIONS_____


CITY           SKY/WX    TMP DP  RH WIND       PRES   REMARKS
MONTREAL       LGT RAIN  63  61  94 NE5       29.80R
QUEBEC CITY    MOSUNNY   54  46  76 E7        29.82R
SHERBROOKE     MOSUNNY   68  59  73 VRB8      29.77S

_____REGIONAL ONTARIO LOCATIONS_____


CITY           SKY/WX    TMP DP  RH WIND       PRES   REMARKS
OTTAWA         CLOUDY    66  64  94 NW6       29.80R

______KEY______
VSB  - VISIBILITY IN MILES
WCI  - WIND CHILL INDEX
HX   - HEAT INDEX
$$
NNNN


ASUS41 KBTV 261530
RWRBTV
VERMONT REGIONAL WEATHER ROUNDUP
NATIONAL WEATHER SERVICE BURLINGTON VT
1100 AM EDT SAT MAY 26 2018

NOTE: "FAIR" INDICATES FEW OR NO CLOUDS BELOW 12,000 FEET WITH NO
SIGNIFICANT WEATHER AND/OR OBSTRUCTIONS TO VISIBILITY.

* THESE REPORTS ARE NOT UNDER NWS QUALITY CONTROL AND/OR DO NOT
  REPORT WEATHER SUCH AS PRECIPITATION AND FOG.

VTZ001>019-261600-
_____VERMONT_____


CITY           SKY/WX    TMP DP  RH WIND       PRES   REMARKS
BURLINGTON     PTSUNNY   71  59  65 CALM      29.77S
MONTPELIER     LGT RAIN  66  65  96 CALM      29.84R
MORRISVILLE    PTSUNNY   65  61  87 N3        29.79F
ST. JOHNSBURY*   N/A     65  64  97 MISG      29.77R
LYNDONVILLE*   LGT RAIN  64  60  87 CALM      29.81S
MIDDLEBURY*    FAIR      72  58  60 S5        29.77F
RUTLAND*       FAIR      78  53  41 W10       29.79S
SPRINGFIELD    FAIR      78  56  46 NE3       29.76S
HIGHGATE*      DRIZZLE   63  62  97 CALM      29.79R
NEWPORT*       RAIN      63  62  97 CALM      29.80S
BENNINGTON     FAIR      79  55  43 SW8       29.81S
ISLAND POND*     N/A     64 N/A N/A NW5         N/A
GALLUP MILLS*    N/A     63 N/A N/A MISG        N/A
UNION VILLAGE*   N/A     72 N/A N/A MISG        N/A
MT. MANSFIELD*   N/A     57 N/A N/A W14         N/A

_____LAKE CHAMPLAIN_____


CITY           SKY/WX    TMP DP  RH WIND       PRES   REMARKS
BURTON ISLAND*   N/A     61  61 100 NE1         N/A
COLCHESTER RF*   N/A     64  61  88 E5          N/A
DIAMOND ISL*     N/A     66  57  72 N3          N/A

$$

NYZ007-026>031-035-052-083-087-261600-
_____NORTHERN NEW YORK_____


CITY           SKY/WX    TMP DP  RH WIND       PRES   REMARKS
PLATTSBURGH    CLOUDY    67  60  78 CALM      29.76F
SARANAC LAKE   FAIR      67  59  75 W7        29.79F
MASSENA        PTSUNNY   71  61  70 NW7       29.79R
OGDENSBURG*    FAIR      73  60  63 W3        29.79R
POTSDAM*       CLOUDY    72  59  64 W9        29.78R
STARK FALLS*     N/A     72 N/A N/A W9          N/A
WATERTOWN      FAIR      71  56  58 W13       29.79R
FT DRUM        FAIR      76  56  50 W6        29.79R
ALBANY         PTSUNNY   81  55  40 W6        29.80R
GLENS FALLS    FAIR      72  58  61 S7        29.78S

$$
NHZ002-005-011-261600-
_____NEW HAMPSHIRE_____


CITY           SKY/WX    TMP DP  RH WIND       PRES   REMARKS
LEBANON        FAIR      80  56  43 N5        29.76R
KEENE          FAIR      82  56  40 S8        29.78S
MT WASHINGTON  LGT RAIN  48  48 100 NW48G56     N/A  VSB 0
PLYMOUTH       FAIR      74  54  48 W3        29.76R
WHITEFIELD     RAIN      67  63  87 S5        29.80R FOG

$$

_____REGIONAL QUEBEC LOCATIONS_____


CITY           SKY/WX    TMP DP  RH WIND       PRES   REMARKS
MONTREAL       LGT RAIN  63  61  94 NE5       29.80R
QUEBEC CITY    MOSUNNY   54  46  76 E7        29.82R
SHERBROOKE     MOSUNNY   68  59  73 VRB8      29.77S

_____REGIONAL ONTARIO LOCATIONS_____


CITY           SKY/WX    TMP DP  RH WIND       PRES   REMARKS
OTTAWA         CLOUDY    66  64  94 NW6       29.80R

______KEY______
VSB  - VISIBILITY IN MILES
WCI  - WIND CHILL INDEX
HX   - HEAT INDEX
$$
NNNN




Office: BOX ASUS41 KBOX 261510 RWRBOX REGIONAL WEATHER ROUNDUP NATIONAL WEATHER SERVICE BOSTON/NORTON MA 1100 AM EDT SAT MAY 26 2018 NOTE: "FAIR" INDICATES FEW OR NO CLOUDS BELOW 12,000 FEET WITH NO SIGNIFICANT WEATHER AND/OR OBSTRUCTIONS TO VISIBILITY. MAZALL-261600- EASTERN MASSACHUSETTS CITY SKY/WX TMP DP RH WIND PRES REMARKS BOSTON NOT AVBL BEVERLY FAIR 85 58 39 W9 29.74S LAWRENCE FAIR 85 58 39 SW14G20 29.76S BEDFORD FAIR 82 59 45 SW8 29.76R BLUE HILL N/A 79 58 48 W13G21 29.79R NORWOOD FAIR 84 59 42 W14 29.77R MARSHFIELD FAIR 84 61 45 VRB7G15 29.76S PLYMOUTH FAIR 85 61 44 W15 29.78S TAUNTON FAIR 87 59 38 W12 29.77S NEW BEDFORD FAIR 85 62 46 W13 29.78S $$ MAZALL-261600- CAPE COD AND THE ISLANDS CITY SKY/WX TMP DP RH WIND PRES REMARKS FALMOUTH FAIR 75 64 69 SW10 29.80F HYANNIS FAIR 75 62 64 S8 29.78S CHATHAM FAIR 73 63 70 SW12G17 29.80S PROVINCETOWN FAIR 73 61 65 SW8 29.78S NANTUCKET FAIR 64 59 83 SW18G24 29.83R MARTHAS VNYRD FAIR 73 62 68 SW13 29.81S $$ MAZALL-261600- CENTRAL AND WESTERN MASSACHUSETTS CITY SKY/WX TMP DP RH WIND PRES REMARKS WORCESTER FAIR 76 56 49 W14 29.81S FITCHBURG FAIR 82 58 43 VRB6 29.78R ORANGE FAIR 80 53 39 SW10 29.80S SPRINGFIELD PTSUNNY 82 60 47 CALM 29.78S WESTFIELD FAIR 86 53 32 W12 29.79S NORTH ADAMS FAIR 78 56 46 W10G16 29.81S PITTSFIELD FAIR 80 52 37 W10G17 29.82S $$ RIZALL-261600- RHODE ISLAND CITY SKY/WX TMP DP RH WIND PRES REMARKS PROVIDENCE FAIR 87 60 40 W8 29.79S NEWPORT FAIR 77 66 68 S5 29.79S BLOCK ISLAND FAIR 66 59 78 SW17 29.83S SMITHFIELD FAIR 83 59 44 MISG 29.80S WESTERLY FAIR 77 66 68 SW12 29.81F $$ CTZALL-261600- CONNECTICUT CITY SKY/WX TMP DP RH WIND PRES REMARKS BRADLEY INTL PTSUNNY 87 59 38 W6 29.78F HARTFORD FAIR 86 60 41 S6 29.78F BRIDGEPORT FAIR 76 64 66 SW12 29.81S DANBURY FAIR 83 60 45 VRB7 29.83F GROTON FAIR 73 67 81 SW14 29.80S NEW HAVEN FAIR 77 66 68 SW8 29.81S CHESTER FAIR 88 59 37 VRB7G16 29.81F MERIDEN FAIR 87 55 33 W9 29.80S WILLIMANTIC FAIR 85 59 41 VRB3 29.80S OXFORD FAIR 83 59 44 NW7G16 29.84S $$ MEZ002-015-021-024-NHZ003-005-008-011-012-014-VTZ005-008-261600- NORTHERN NEW ENGLAND CITY SKY/WX TMP DP RH WIND PRES REMARKS PORTLAND ME CLOUDY 70 62 76 S3 29.72S BANGOR ME CLOUDY 70 63 78 NW3 29.71R CONCORD NH FAIR 80 56 43 W7 29.75R MANCHESTER NH CLOUDY 86 52 30 W8 29.74R NASHUA NH FAIR 85 57 38 W9 29.75S PORTSMOUTH NH CLOUDY 83 55 37 W10 29.71 JAFFREY NH FAIR 80 52 37 SW9 29.81R KEENE NH FAIR 82 56 40 S8 29.78S BURLINGTON VT PTSUNNY 71 59 65 CALM 29.77S MT. WASHINGTON LGT RAIN 48 48 100 NW48G56 N/A VSB 0 $$ NYZ052-076-261600- EASTERN NEW YORK CITY SKY/WX TMP DP RH WIND PRES REMARKS ALBANY PTSUNNY 81 55 40 W6 29.80R NEW YORK CITY PTSUNNY 84 64 50 NW6 29.82S $$ ANZALL-261600- MARINE OBSERVATIONS STATION/POSITION TIME TEMP WIND PRES VSBY WAVE AIR SEA DIR/SP/G HT/PER (UTC) (F) (DEG/KT/KT) (MB) (MI) (FT/S) BOSTON BUOY 1450 68 57 240/ 10/ 10 1007.4R 1/ 6 BUZZARDS BAY 1400 57 230/ 16/ 16 1010.0R NANTUCKET SOUND 1450 60 59 220/ 8/ 12 1009.1S 2/ 3 MASS BAY-STELLWA 1404 60 53 1005.5R 2/ 5 ISLE OF SHOALS 1500 75 270/ 7/ 7 1006.4R S OF BLOCK IS 1443 53 N/A 4/ 6 $$ ......................KEY......................... SKY/WX - SKY CONDITION/PRESENT WEATHER TMP - TEMPERATURE IN FAHRENHEIT DWPT - DEWPOINT IN FAHRENHEIT RH - RELATIVE HUMIDITY IN PERCENT WIND - DIRECTION AND SPEED IN MPH PRES - MEAN SEA LEVEL PRESSURE IN INCHES OF HG WCI - WIND CHILL INDEX VSB - VISIBILITY IN MILES HX - HEAT INDEX TC - TEMPERATURE IN CELSIUS VRB - VARIABLE WIND DIRECTION N/A - NOT AVAILABLE ASUS41 KBOX 261510 RWRBOX REGIONAL WEATHER ROUNDUP NATIONAL WEATHER SERVICE BOSTON/NORTON MA 1100 AM EDT SAT MAY 26 2018 NOTE: "FAIR" INDICATES FEW OR NO CLOUDS BELOW 12,000 FEET WITH NO SIGNIFICANT WEATHER AND/OR OBSTRUCTIONS TO VISIBILITY. MAZALL-261600- EASTERN MASSACHUSETTS CITY SKY/WX TMP DP RH WIND PRES REMARKS BOSTON NOT AVBL BEVERLY FAIR 85 58 39 W9 29.74S LAWRENCE FAIR 85 58 39 SW14G20 29.76S BEDFORD FAIR 82 59 45 SW8 29.76R BLUE HILL N/A 79 58 48 W13G21 29.79R NORWOOD FAIR 84 59 42 W14 29.77R MARSHFIELD FAIR 84 61 45 VRB7G15 29.76S PLYMOUTH FAIR 85 61 44 W15 29.78S TAUNTON FAIR 87 59 38 W12 29.77S NEW BEDFORD FAIR 85 62 46 W13 29.78S $$ MAZALL-261600- CAPE COD AND THE ISLANDS CITY SKY/WX TMP DP RH WIND PRES REMARKS FALMOUTH FAIR 75 64 69 SW10 29.80F HYANNIS FAIR 75 62 64 S8 29.78S CHATHAM FAIR 73 63 70 SW12G17 29.80S PROVINCETOWN FAIR 73 61 65 SW8 29.78S NANTUCKET FAIR 64 59 83 SW18G24 29.83R MARTHAS VNYRD FAIR 73 62 68 SW13 29.81S $$ MAZALL-261600- CENTRAL AND WESTERN MASSACHUSETTS CITY SKY/WX TMP DP RH WIND PRES REMARKS WORCESTER FAIR 76 56 49 W14 29.81S FITCHBURG FAIR 82 58 43 VRB6 29.78R ORANGE FAIR 80 53 39 SW10 29.80S SPRINGFIELD PTSUNNY 82 60 47 CALM 29.78S WESTFIELD FAIR 86 53 32 W12 29.79S NORTH ADAMS FAIR 78 56 46 W10G16 29.81S PITTSFIELD FAIR 80 52 37 W10G17 29.82S $$ RIZALL-261600- RHODE ISLAND CITY SKY/WX TMP DP RH WIND PRES REMARKS PROVIDENCE FAIR 87 60 40 W8 29.79S NEWPORT FAIR 77 66 68 S5 29.79S BLOCK ISLAND FAIR 66 59 78 SW17 29.83S SMITHFIELD FAIR 83 59 44 MISG 29.80S WESTERLY FAIR 77 66 68 SW12 29.81F $$ CTZALL-261600- CONNECTICUT CITY SKY/WX TMP DP RH WIND PRES REMARKS BRADLEY INTL PTSUNNY 87 59 38 W6 29.78F HARTFORD FAIR 86 60 41 S6 29.78F BRIDGEPORT FAIR 76 64 66 SW12 29.81S DANBURY FAIR 83 60 45 VRB7 29.83F GROTON FAIR 73 67 81 SW14 29.80S NEW HAVEN FAIR 77 66 68 SW8 29.81S CHESTER FAIR 88 59 37 VRB7G16 29.81F MERIDEN FAIR 87 55 33 W9 29.80S WILLIMANTIC FAIR 85 59 41 VRB3 29.80S OXFORD FAIR 83 59 44 NW7G16 29.84S $$ MEZ002-015-021-024-NHZ003-005-008-011-012-014-VTZ005-008-261600- NORTHERN NEW ENGLAND CITY SKY/WX TMP DP RH WIND PRES REMARKS PORTLAND ME CLOUDY 70 62 76 S3 29.72S BANGOR ME CLOUDY 70 63 78 NW3 29.71R CONCORD NH FAIR 80 56 43 W7 29.75R MANCHESTER NH CLOUDY 86 52 30 W8 29.74R NASHUA NH FAIR 85 57 38 W9 29.75S PORTSMOUTH NH CLOUDY 83 55 37 W10 29.71 JAFFREY NH FAIR 80 52 37 SW9 29.81R KEENE NH FAIR 82 56 40 S8 29.78S BURLINGTON VT PTSUNNY 71 59 65 CALM 29.77S MT. WASHINGTON LGT RAIN 48 48 100 NW48G56 N/A VSB 0 $$ NYZ052-076-261600- EASTERN NEW YORK CITY SKY/WX TMP DP RH WIND PRES REMARKS ALBANY PTSUNNY 81 55 40 W6 29.80R NEW YORK CITY PTSUNNY 84 64 50 NW6 29.82S $$ ANZALL-261600- MARINE OBSERVATIONS STATION/POSITION TIME TEMP WIND PRES VSBY WAVE AIR SEA DIR/SP/G HT/PER (UTC) (F) (DEG/KT/KT) (MB) (MI) (FT/S) BOSTON BUOY 1450 68 57 240/ 10/ 10 1007.4R 1/ 6 BUZZARDS BAY 1400 57 230/ 16/ 16 1010.0R NANTUCKET SOUND 1450 60 59 220/ 8/ 12 1009.1S 2/ 3 MASS BAY-STELLWA 1404 60 53 1005.5R 2/ 5 ISLE OF SHOALS 1500 75 270/ 7/ 7 1006.4R S OF BLOCK IS 1443 53 N/A 4/ 6 $$ ......................KEY......................... SKY/WX - SKY CONDITION/PRESENT WEATHER TMP - TEMPERATURE IN FAHRENHEIT DWPT - DEWPOINT IN FAHRENHEIT RH - RELATIVE HUMIDITY IN PERCENT WIND - DIRECTION AND SPEED IN MPH PRES - MEAN SEA LEVEL PRESSURE IN INCHES OF HG WCI - WIND CHILL INDEX VSB - VISIBILITY IN MILES HX - HEAT INDEX TC - TEMPERATURE IN CELSIUS VRB - VARIABLE WIND DIRECTION N/A - NOT AVAILABLE
Office: GYX ASUS41 KGYX 261505 RWRGYX WEATHER ROUNDUP FOR MAINE AND NEW HAMPSHIRE NATIONAL WEATHER SERVICE GRAY ME 1100 AM EDT SAT MAY 26 2018 MEZ002-005-006-010-012-015-018-020-021-024-026-027-029-261600- MAINE CITY SKY/WX TMP DP RH WIND PRES REMARKS PORTLAND CLOUDY 70 62 76 S3 29.72S SANFORD FAIR 75 59 57 CALM 29.74S BAR HARBOR CLOUDY 71 60 68 NW6 29.71R WISCASSET CLOUDY 66 64 93 CALM 29.74R ROCKLAND LGT RAIN 67 63 87 W6 29.72S FRYEBURG FAIR 73 60 63 W6 29.74S LEWISTONAUBURN FAIR 69 61 75 CALM 29.72F AUGUSTA CLOUDY 66 63 90 SW3 29.73R WATERVILLE LGT RAIN 68 64 87 SW5 29.71R BANGOR CLOUDY 70 63 78 NW3 29.71R GREENVILLE N/A 64 58 80 N10 29.72R MILLINOCKET PTSUNNY 69 56 62 NE7 29.72R HOULTON FAIR 64 52 64 N16G22 29.71R PRESQUE ISLE FAIR 62 42 47 N17 29.76R FRENCHVILLE FAIR 61 34 36 NW17G26 29.76R CARIBOU FAIR 64 41 42 N13G23 29.74R $$ NHZ002-005-008-009-011-012-014-261600- NEW HAMPSHIRE CITY SKY/WX TMP DP RH WIND PRES REMARKS PORTSMOUTH CLOUDY 83 55 37 W10 29.71S ROCHESTER FAIR 77 58 51 W5 29.73S NASHUA FAIR 85 57 38 W9 29.75S MANCHESTER CLOUDY 86 52 30 W8 29.74R CONCORD FAIR 80 56 43 W7 29.75R LACONIA FAIR 75 57 53 W8 29.76R PLYMOUTH FAIR 74 54 48 W5 29.76R BERLIN LGT RAIN 66 61 84 NW5 29.77R WHITEFIELD LGT RAIN 68 62 81 S3 29.78R JAFFREY FAIR 80 52 37 SW9 29.81R KEENE FAIR 82 56 40 S8 29.78S LEBANON FAIR 80 56 43 N5 29.76R MT WASHINGTON LGT RAIN 48 48 100 NW48G56 N/A VSB 0 $$ VTZ005-007-008-261600- VERMONT CITY SKY/WX TMP DP RH WIND PRES REMARKS ST JOHNSBURY N/A 65 64 97 MISG 29.77R MONTPELIER LGT RAIN 66 65 96 CALM 29.84R BURLINGTON PTSUNNY 71 59 65 CALM 29.77S $$ MAZ007-012-024-CTZ003-RIZ002-NYZ038-NYZ072-261600- SOUTHERN NEW ENGLAND AND NY CITY SKY/WX TMP DP RH WIND PRES REMARKS WORCESTER FAIR 76 56 49 W14 29.81S NANTUCKET FAIR 64 59 83 SW18G24 29.83R PROVIDENCE FAIR 87 60 40 W8 29.79S HARTFORD PTSUNNY 87 59 38 W6 29.78F ALBANY PTSUNNY 81 55 40 W6 29.80R NEW YORK CITY PTSUNNY 84 64 50 NW6 29.82S $$ ANZ081-ANZ082-ANZ150-NHZ014-MEZ023>029-261600- COASTAL MARINE OBSERVATIONS STATION/POSITION TIME TEMP WIND PRES WAVE AIR SEA DIR/SP/G HT/PER (UTC) (F) (DEG/KT/KT) (MB) (FT/S) MOUNT DESERT ROC 1500 53 250/ 18/ 18 1006.3R MATINICUS ROCK 1400 54 250/ 20/ 21 1006.0R ISLE OF SHOALS 1400 75 260/ 12/ 13 1006.1R JEFFREYS LEDGE 1436 55 N/A 3/ 6 $$ .............KEY.............. WCI - WIND CHILL TC - TEMPERATURE IN CELSIUS VSB - VISIBILITY IN MILES HX - HEAT INDEX FAIR- INDICATES FEW OR NO CLOUDS BELOW 12,000 FT, WITH NO SIGNIFICANT WEATHER AND/OR OBSTRUCTIONS TO VISIBILITY. ASUS41 KGYX 261505 RWRGYX WEATHER ROUNDUP FOR MAINE AND NEW HAMPSHIRE NATIONAL WEATHER SERVICE GRAY ME 1100 AM EDT SAT MAY 26 2018 MEZ002-005-006-010-012-015-018-020-021-024-026-027-029-261600- MAINE CITY SKY/WX TMP DP RH WIND PRES REMARKS PORTLAND CLOUDY 70 62 76 S3 29.72S SANFORD FAIR 75 59 57 CALM 29.74S BAR HARBOR CLOUDY 71 60 68 NW6 29.71R WISCASSET CLOUDY 66 64 93 CALM 29.74R ROCKLAND LGT RAIN 67 63 87 W6 29.72S FRYEBURG FAIR 73 60 63 W6 29.74S LEWISTONAUBURN FAIR 69 61 75 CALM 29.72F AUGUSTA CLOUDY 66 63 90 SW3 29.73R WATERVILLE LGT RAIN 68 64 87 SW5 29.71R BANGOR CLOUDY 70 63 78 NW3 29.71R GREENVILLE N/A 64 58 80 N10 29.72R MILLINOCKET PTSUNNY 69 56 62 NE7 29.72R HOULTON FAIR 64 52 64 N16G22 29.71R PRESQUE ISLE FAIR 62 42 47 N17 29.76R FRENCHVILLE FAIR 61 34 36 NW17G26 29.76R CARIBOU FAIR 64 41 42 N13G23 29.74R $$ NHZ002-005-008-009-011-012-014-261600- NEW HAMPSHIRE CITY SKY/WX TMP DP RH WIND PRES REMARKS PORTSMOUTH CLOUDY 83 55 37 W10 29.71S ROCHESTER FAIR 77 58 51 W5 29.73S NASHUA FAIR 85 57 38 W9 29.75S MANCHESTER CLOUDY 86 52 30 W8 29.74R CONCORD FAIR 80 56 43 W7 29.75R LACONIA FAIR 75 57 53 W8 29.76R PLYMOUTH FAIR 74 54 48 W5 29.76R BERLIN LGT RAIN 66 61 84 NW5 29.77R WHITEFIELD LGT RAIN 68 62 81 S3 29.78R JAFFREY FAIR 80 52 37 SW9 29.81R KEENE FAIR 82 56 40 S8 29.78S LEBANON FAIR 80 56 43 N5 29.76R MT WASHINGTON LGT RAIN 48 48 100 NW48G56 N/A VSB 0 $$ VTZ005-007-008-261600- VERMONT CITY SKY/WX TMP DP RH WIND PRES REMARKS ST JOHNSBURY N/A 65 64 97 MISG 29.77R MONTPELIER LGT RAIN 66 65 96 CALM 29.84R BURLINGTON PTSUNNY 71 59 65 CALM 29.77S $$ MAZ007-012-024-CTZ003-RIZ002-NYZ038-NYZ072-261600- SOUTHERN NEW ENGLAND AND NY CITY SKY/WX TMP DP RH WIND PRES REMARKS WORCESTER FAIR 76 56 49 W14 29.81S NANTUCKET FAIR 64 59 83 SW18G24 29.83R PROVIDENCE FAIR 87 60 40 W8 29.79S HARTFORD PTSUNNY 87 59 38 W6 29.78F ALBANY PTSUNNY 81 55 40 W6 29.80R NEW YORK CITY PTSUNNY 84 64 50 NW6 29.82S $$ ANZ081-ANZ082-ANZ150-NHZ014-MEZ023>029-261600- COASTAL MARINE OBSERVATIONS STATION/POSITION TIME TEMP WIND PRES WAVE AIR SEA DIR/SP/G HT/PER (UTC) (F) (DEG/KT/KT) (MB) (FT/S) MOUNT DESERT ROC 1500 53 250/ 18/ 18 1006.3R MATINICUS ROCK 1400 54 250/ 20/ 21 1006.0R ISLE OF SHOALS 1400 75 260/ 12/ 13 1006.1R JEFFREYS LEDGE 1436 55 N/A 3/ 6 $$ .............KEY.............. WCI - WIND CHILL TC - TEMPERATURE IN CELSIUS VSB - VISIBILITY IN MILES HX - HEAT INDEX FAIR- INDICATES FEW OR NO CLOUDS BELOW 12,000 FT, WITH NO SIGNIFICANT WEATHER AND/OR OBSTRUCTIONS TO VISIBILITY. ASUS41 KGYX 261510 RWRGYX WEATHER ROUNDUP FOR MAINE AND NEW HAMPSHIRE NATIONAL WEATHER SERVICE GRAY ME 1100 AM EDT SAT MAY 26 2018 MEZ002-005-006-010-012-015-018-020-021-024-026-027-029-261600- MAINE CITY SKY/WX TMP DP RH WIND PRES REMARKS PORTLAND CLOUDY 70 62 76 S3 29.72S SANFORD FAIR 75 59 57 CALM 29.74S BAR HARBOR CLOUDY 71 60 68 NW6 29.71R WISCASSET CLOUDY 66 64 93 CALM 29.74R ROCKLAND LGT RAIN 67 63 87 W6 29.72S FRYEBURG FAIR 73 60 63 W6 29.74S LEWISTONAUBURN FAIR 69 61 75 CALM 29.72F AUGUSTA CLOUDY 66 63 90 SW3 29.73R WATERVILLE LGT RAIN 68 64 87 SW5 29.71R BANGOR CLOUDY 70 63 78 NW3 29.71R GREENVILLE N/A 64 58 80 N10 29.72R MILLINOCKET PTSUNNY 69 56 62 NE7 29.72R HOULTON FAIR 64 52 64 N16G22 29.71R PRESQUE ISLE FAIR 62 42 47 N17 29.76R FRENCHVILLE FAIR 61 34 36 NW17G26 29.76R CARIBOU FAIR 64 41 42 N13G23 29.74R $$ NHZ002-005-008-009-011-012-014-261600- NEW HAMPSHIRE CITY SKY/WX TMP DP RH WIND PRES REMARKS PORTSMOUTH CLOUDY 83 55 37 W10 29.71S ROCHESTER FAIR 77 58 51 W5 29.73S NASHUA FAIR 85 57 38 W9 29.75S MANCHESTER CLOUDY 86 52 30 W8 29.74R CONCORD FAIR 80 56 43 W7 29.75R LACONIA FAIR 75 57 53 W8 29.76R PLYMOUTH FAIR 74 54 48 W5 29.76R BERLIN LGT RAIN 66 61 84 NW5 29.77R WHITEFIELD LGT RAIN 68 62 81 S3 29.78R JAFFREY FAIR 80 52 37 SW9 29.81R KEENE FAIR 82 56 40 S8 29.78S LEBANON FAIR 80 56 43 N5 29.76R MT WASHINGTON LGT RAIN 48 48 100 NW48G56 N/A VSB 0 $$ VTZ005-007-008-261600- VERMONT CITY SKY/WX TMP DP RH WIND PRES REMARKS ST JOHNSBURY N/A 65 64 97 MISG 29.77R MONTPELIER LGT RAIN 66 65 96 CALM 29.84R BURLINGTON PTSUNNY 71 59 65 CALM 29.77S $$ MAZ007-012-024-CTZ003-RIZ002-NYZ038-NYZ072-261600- SOUTHERN NEW ENGLAND AND NY CITY SKY/WX TMP DP RH WIND PRES REMARKS WORCESTER FAIR 76 56 49 W14 29.81S NANTUCKET FAIR 64 59 83 SW18G24 29.83R PROVIDENCE FAIR 87 60 40 W8 29.79S HARTFORD PTSUNNY 87 59 38 W6 29.78F ALBANY PTSUNNY 81 55 40 W6 29.80R NEW YORK CITY PTSUNNY 84 64 50 NW6 29.82S $$ ANZ081-ANZ082-ANZ150-NHZ014-MEZ023>029-261600- COASTAL MARINE OBSERVATIONS STATION/POSITION TIME TEMP WIND PRES WAVE AIR SEA DIR/SP/G HT/PER (UTC) (F) (DEG/KT/KT) (MB) (FT/S) MOUNT DESERT ROC 1500 53 250/ 18/ 18 1006.3R MATINICUS ROCK 1500 54 280/ 16/ 17 1006.4R ISLE OF SHOALS 1500 75 270/ 7/ 7 1006.4R JEFFREYS LEDGE 1436 55 N/A 3/ 6 $$ .............KEY.............. WCI - WIND CHILL TC - TEMPERATURE IN CELSIUS VSB - VISIBILITY IN MILES HX - HEAT INDEX FAIR- INDICATES FEW OR NO CLOUDS BELOW 12,000 FT, WITH NO SIGNIFICANT WEATHER AND/OR OBSTRUCTIONS TO VISIBILITY. ASUS41 KGYX 261510 RWRGYX WEATHER ROUNDUP FOR MAINE AND NEW HAMPSHIRE NATIONAL WEATHER SERVICE GRAY ME 1100 AM EDT SAT MAY 26 2018 MEZ002-005-006-010-012-015-018-020-021-024-026-027-029-261600- MAINE CITY SKY/WX TMP DP RH WIND PRES REMARKS PORTLAND CLOUDY 70 62 76 S3 29.72S SANFORD FAIR 75 59 57 CALM 29.74S BAR HARBOR CLOUDY 71 60 68 NW6 29.71R WISCASSET CLOUDY 66 64 93 CALM 29.74R ROCKLAND LGT RAIN 67 63 87 W6 29.72S FRYEBURG FAIR 73 60 63 W6 29.74S LEWISTONAUBURN FAIR 69 61 75 CALM 29.72F AUGUSTA CLOUDY 66 63 90 SW3 29.73R WATERVILLE LGT RAIN 68 64 87 SW5 29.71R BANGOR CLOUDY 70 63 78 NW3 29.71R GREENVILLE N/A 64 58 80 N10 29.72R MILLINOCKET PTSUNNY 69 56 62 NE7 29.72R HOULTON FAIR 64 52 64 N16G22 29.71R PRESQUE ISLE FAIR 62 42 47 N17 29.76R FRENCHVILLE FAIR 61 34 36 NW17G26 29.76R CARIBOU FAIR 64 41 42 N13G23 29.74R $$ NHZ002-005-008-009-011-012-014-261600- NEW HAMPSHIRE CITY SKY/WX TMP DP RH WIND PRES REMARKS PORTSMOUTH CLOUDY 83 55 37 W10 29.71S ROCHESTER FAIR 77 58 51 W5 29.73S NASHUA FAIR 85 57 38 W9 29.75S MANCHESTER CLOUDY 86 52 30 W8 29.74R CONCORD FAIR 80 56 43 W7 29.75R LACONIA FAIR 75 57 53 W8 29.76R PLYMOUTH FAIR 74 54 48 W5 29.76R BERLIN LGT RAIN 66 61 84 NW5 29.77R WHITEFIELD LGT RAIN 68 62 81 S3 29.78R JAFFREY FAIR 80 52 37 SW9 29.81R KEENE FAIR 82 56 40 S8 29.78S LEBANON FAIR 80 56 43 N5 29.76R MT WASHINGTON LGT RAIN 48 48 100 NW48G56 N/A VSB 0 $$ VTZ005-007-008-261600- VERMONT CITY SKY/WX TMP DP RH WIND PRES REMARKS ST JOHNSBURY N/A 65 64 97 MISG 29.77R MONTPELIER LGT RAIN 66 65 96 CALM 29.84R BURLINGTON PTSUNNY 71 59 65 CALM 29.77S $$ MAZ007-012-024-CTZ003-RIZ002-NYZ038-NYZ072-261600- SOUTHERN NEW ENGLAND AND NY CITY SKY/WX TMP DP RH WIND PRES REMARKS WORCESTER FAIR 76 56 49 W14 29.81S NANTUCKET FAIR 64 59 83 SW18G24 29.83R PROVIDENCE FAIR 87 60 40 W8 29.79S HARTFORD PTSUNNY 87 59 38 W6 29.78F ALBANY PTSUNNY 81 55 40 W6 29.80R NEW YORK CITY PTSUNNY 84 64 50 NW6 29.82S $$ ANZ081-ANZ082-ANZ150-NHZ014-MEZ023>029-261600- COASTAL MARINE OBSERVATIONS STATION/POSITION TIME TEMP WIND PRES WAVE AIR SEA DIR/SP/G HT/PER (UTC) (F) (DEG/KT/KT) (MB) (FT/S) MOUNT DESERT ROC 1500 53 250/ 18/ 18 1006.3R MATINICUS ROCK 1500 54 280/ 16/ 17 1006.4R ISLE OF SHOALS 1500 75 270/ 7/ 7 1006.4R JEFFREYS LEDGE 1436 55 N/A 3/ 6 $$ .............KEY.............. WCI - WIND CHILL TC - TEMPERATURE IN CELSIUS VSB - VISIBILITY IN MILES HX - HEAT INDEX FAIR- INDICATES FEW OR NO CLOUDS BELOW 12,000 FT, WITH NO SIGNIFICANT WEATHER AND/OR OBSTRUCTIONS TO VISIBILITY.